Temp
10 10 11 12 13 14 13 10 13 10 11 8 3 9 11 12 11 11 12 12 13 14 13 13 12 14 12 11 11 13 11 8 7 11 9 9 9 10 9 7 8 2 3 8
10 10 11 11 12 13 13 10 9 9 10 10 9 10 12 11 12 12 11 12 13 12 13 14 13 12 11 10 11 11 10 10 7 11 9 8 8 8 8 6 5 4 6 9
8 10 11 12 12 12 12 9 11 9 6 6 10 12 13 12 11 12 12 13 12 13 13 12 13 12 10 10 10 11 10 9 12 13 14 10 10 8 7 9 4 6 5 8
6 8 10 11 12 13 11 6 10 8 11 11 11 12 12 13 12 11 11 11 12 13 13 13 13 12 10 10 10 9 9 11 9 10 10 10 12 11 8 6 8 10 11 6
6 7 8 10 11 12 11 9 9 5 8 9 12 11 11 12 13 11 12 12 12 11 13 13 11 10 10 11 8 10 5 10 9 9 10 8 9 9 10 9 10 9 10 10
5 6 7 8 9 11 8 6 6 7 8 8 10 11 12 12 13 12 12 11 11 11 11 11 12 10 10 10 8 7 6 7 8 8 8 9 8 9 10 9 8 10 10 10
4 4 4 5 7 7 7 7 6 7 10 8 9 12 11 12 12 14 12 11 12 12 10 10 10 9 9 7 7 7 5 7 7 6 10 8 13 12 11 10 9 8 9 8
4 4 4 3 5 6 7 7 6 6 8 7 10 10 11 12 11 11 12 11 10 9 10 9 10 9 10 8 6 6 7 7 9 7 5 8 12 10 9 10 9 7 7 7
3 3 3 3 3 5 6 6 6 4 6 8 9 10 10 9 9 9 10 8 7 8 7 9 10 10 11 11 7 4 6 8 10 6 7 8 11 11 10 10 9 6 6 6
3 3 3 3 3 3 5 5 5 5 4 5 8 8 9 8 8 8 8 8 8 8 6 8 7 8 9 9 8 6 5 5 7 9 8 8 9 9 8 9 8 5 5 4
2 2 3 3 3 3 4 4 4 4 5 5 6 7 8 7 7 7 7 8 6 6 7 7 7 6 7 8 7 6 7 6 5 7 7 8 5 8 10 5 4 3 3 4
2 2 2 2 2 2 3 4 4 4 3 6 6 7 7 8 8 7 6 7 7 7 7 6 6 7 5 6 8 6 8 9 8 9 8 5 4 5 5 5 5 4 3 2
2 2 2 2 2 2 2 2 2 3 3 3 4 5 7 6 6 7 6 7 8 7 7 6 6 6 6 7 6 8 8 9 8 8 6 5 4 3 3 3 3 2 3 2
2 2 2 2 2 2 2 2 2 2 2 3 4 5 5 6 5 5 5 6 6 6 6 6 6 7 6 6 6 6 7 8 7 7 5 4 3 2 3 3 2 2 2 2
1 1 1 1 2 2 2 2 2 1 2 2 2 4 5 4 5 5 5 5 5 5 5 5 6 6 6 6 6 6 5 6 6 7 3 4 2 1 2 2 1 2 1 1
1 1 1 1 1 1 1 1 1 1 0 1 2 3 3 4 4 4 4 5 5 4 4 5 4 5 5 5 5 2 2 1 2 2 1 1 1 2 1 2 1 1 1 1
1 1 1 1 1 1 1 2 1 1 1 1 1 2 3 2 3 4 3 4 4 4 4 4 5 5 5 5 4 1 1 0 0 1 1 1 1 1 -0 -1 -0 0 1 1
1 1 1 1 1 1 1 1 1 1 1 1 0 1 2 2 2 3 2 3 3 4 4 4 4 3 3 2 1 1 1 0 0 0 -0 -2 -2 -2 -1 0 0 -0 -1 -1
0 0 1 0 1 1 0 1 1 1 1 -0 -0 1 2 1 1 2 2 2 3 2 3 3 3 2 1 1 0 0 0 0 -1 -1 -2 -2 -1 -1 -1 -1 -1 -2 -2 -2
1 1 0 -2 -0 0 0 0 0 -2 0 -0 1 -0 1 0 1 1 1 1 1 0 1 0 1 -1 -1 -2 -1 -1 -1 -1 -1 -1 -0 -1 -1 -1 -2 -2 -2 -2 -3 -3
0 -2 -3 -1 -0 -0 -2 -5 -3 -2 -1 -1 -2 -2 -1 -0 -0 -0 -0 -2 -1 -1 1 0 1 -1 -1 -2 -1 -1 -1 -0 -1 -0 -1 -2 -2 -3 -3 -3 -3 -3 -3 -3
-1 -2 -2 -2 -5 -7 -7 -8 -3 -2 -1 -2 -3 -2 -2 -1 -1 -1 -3 -3 -3 -2 -3 -1 -2 -1 -2 -2 -2 -2 -1 -1 -2 -2 -3 -3 -3 -3 -3 -4 -4 -4 -3 -3
-1 -3 -10 -9 -9 -5 -8 -7 -5 -4 -2 -3 -3 -4 -4 -4 -4 -8 -8 -8 -6 -5 -5 -3 -3 -2 -2 -2 -2 -2 -2 -3 -3 -3 -3 -3 -3 -4 -4 -4 -4 -4 -4 -5
-8 -10 -6 -9 -9 -5 -4 -3 -4 -2 -4 -5 -8 -7 -6 -8 -7 -12 -8 -7 -8 -4 -2 -2 -4 -4 -3 -3 -3 -4 -4 -4 -4 -5 -5 -5 -5 -5 -5 -5 -5 -6 -6 -6
-9 -10 -5 -8 -4 -5 -6 -6 -5 -4 -5 -5 -7 -8 -8 -11 -10 -8 -9 -9 -5 -3 -2 -3 -5 -4 -4 -5 -4 -5 -5 -6 -7 -6 -6 -7 -6 -6 -7 -6 -7 -7 -7 -7
-8 -8 -7 -5 -4 -4 -5 -6 -6 -5 -6 -7 -9 -13 -12 -11 -11 -9 -10 -11 -7 -4 -5 -6 -9 -7 -7 -7 -6 -6 -6 -6 -6 -7 -7 -6 -7 -7 -7 -7 -7 -7 -7 -7
-8 -7 -4 -4 -4 -3 -5 -6 -5 -6 -6 -9 -11 -8 -8 -10 -12 -9 -9 -7 -4 -6 -6 -8 -7 -8 -7 -8 -7 -7 -7 -7 -7 -7 -7 -7 -8 -8 -8 -8 -7 -7 -7 -7
Height
808 804 798 793 788 784 784 785 793 790 789 805 822 806 799 794 797 800 799 798 795 795 798 798 803 798 804 806 806 804 814 829 846 822 831 832 832 828 835 858 854 889 890 842
809 804 800 794 789 785 784 788 791 791 793 802 808 805 797 797 797 797 798 798 798 798 798 797 800 801 805 806 806 809 812 822 852 824 838 836 835 833 831 844 853 870 863 830
810 805 802 796 790 785 783 788 794 792 793 800 795 794 794 796 798 796 795 794 795 795 796 799 801 804 810 809 809 808 812 823 808 810 799 816 820 825 831 826 866 845 842 818
811 807 802 797 792 786 785 788 791 794 794 791 791 790 791 792 794 797 797 797 797 793 794 796 796 801 807 811 810 813 815 808 818 811 811 811 802 803 821 831 813 807 792 819
813 808 803 798 793 788 786 791 791 796 796 793 788 788 792 787 785 792 792 792 790 794 792 790 800 802 807 801 812 809 823 815 819 813 806 814 810 804 798 803 794 800 792 791
815 811 806 800 796 791 790 793 793 792 792 793 790 787 779 782 781 783 781 786 792 795 791 788 786 791 794 796 807 818 823 824 824 823 812 807 812 790 783 789 794 786 789 782
817 813 809 805 800 798 797 795 795 796 791 794 788 779 782 779 779 778 782 786 785 784 785 788 791 793 795 799 801 803 821 820 820 831 805 819 765 768 772 779 781 786 784 786
819 815 811 808 804 800 797 797 796 797 795 793 784 782 781 779 781 782 780 783 784 784 786 795 794 799 791 795 804 807 806 812 811 823 834 793 768 772 779 775 781 786 787 789
820 817 814 810 805 802 798 797 796 796 798 789 784 780 781 785 787 787 783 786 785 786 794 796 798 795 785 786 800 810 808 805 800 826 817 798 772 769 772 773 783 789 790 793
821 818 814 811 807 804 800 798 796 796 796 787 784 787 783 782 784 786 785 784 787 787 798 799 804 800 788 788 791 807 814 815 805 798 796 784 771 773 773 780 786 794 795 799
821 818 815 811 808 805 801 798 797 796 791 786 783 783 784 783 784 784 785 786 789 795 794 794 794 798 788 782 785 795 795 804 810 801 801 787 784 776 772 791 795 797 800 801
820 817 815 812 810 806 803 799 797 795 794 786 783 782 782 782 782 783 780 777 779 779 784 788 787 786 793 786 782 785 781 772 778 778 777 785 786 787 790 790 791 795 799 804
819 817 815 812 810 807 805 801 797 794 792 786 781 778 778 778 778 778 779 776 772 773 774 781 781 783 784 782 782 773 770 769 771 772 782 784 787 792 794 795 796 799 800 803
817 816 813 811 809 806 804 801 798 797 795 790 780 777 777 776 774 774 775 774 773 775 776 777 776 774 775 777 775 776 774 771 775 774 782 787 790 794 796 798 800 802 804 803
816 813 811 809 807 805 801 798 797 796 799 792 784 777 775 774 772 770 772 771 771 772 775 774 772 771 773 773 774 776 778 775 775 771 789 788 795 799 799 801 803 804 805 803
813 811 809 807 805 803 800 798 797 796 797 795 788 779 776 774 772 770 769 770 770 771 773 771 772 772 771 772 774 789 788 790 787 790 793 795 800 802 802 803 804 805 805 803
810 808 806 803 803 802 802 799 797 796 796 796 791 783 777 775 773 771 770 769 769 770 772 772 772 773 774 770 777 795 795 793 795 796 798 801 801 803 804 804 804 803 802 802
807 805 802 799 797 797 796 794 795 794 795 794 796 787 782 778 775 773 773 770 771 772 771 772 770 776 779 791 796 797 798 798 800 800 801 802 802 803 802 802 802 801 800 799
804 800 797 795 795 794 795 794 793 794 797 795 793 787 784 781 780 778 776 775 777 779 775 778 778 786 799 802 802 803 802 803 805 803 804 803 802 802 801 801 800 799 797 795
801 798 797 799 797 795 794 794 794 794 793 793 790 791 786 788 784 782 784 783 783 789 788 787 787 809 813 812 809 808 807 807 805 803 802 802 801 802 801 800 799 798 795 792
801 801 801 798 795 794 795 803 802 796 796 795 796 795 793 790 790 789 789 796 791 796 791 790 795 810 814 814 812 809 807 807 806 806 806 806 804 803 800 798 796 794 791 788
804 804 801 799 800 805 812 818 804 799 796 799 803 799 796 792 791 792 800 800 803 801 804 799 812 816 814 812 810 810 809 808 807 807 807 805 803 801 798 795 792 790 787 784
803 803 808 813 818 815 829 826 816 812 803 804 802 805 802 799 800 813 816 825 824 815 821 822 823 817 814 814 813 810 809 809 808 807 804 801 798 796 795 791 788 786 783 779
809 819 820 829 832 818 813 810 811 808 808 807 812 812 810 812 814 831 830 826 830 820 816 817 824 821 817 815 812 811 810 808 806 804 801 799 796 793 791 788 786 782 778 774
816 820 821 827 814 814 815 813 811 810 809 809 813 817 818 828 829 826 833 839 830 820 820 823 824 819 818 816 813 812 810 807 804 802 799 795 793 790 787 784 781 777 773 770
816 819 823 818 816 815 815 816 815 812 811 813 817 836 839 842 843 838 849 857 844 829 827 824 824 822 819 817 813 811 808 805 802 800 797 794 790 787 784 780 776 773 770 767
821 823 817 816 817 815 818 818 815 812 813 826 831 833 836 840 854 847 845 839 827 829 826 824 822 820 816 814 811 808 806 803 800 797 794 791 788 784 781 776 773 770 766 763
Wind_Speed
24 26 28 31 27 12 2 4 1 1 6 3 2 2 4 3 4 0 2 0 2 2 1 2 2 1 3 1 3 3 1 4 3 3 2 1 1 3 5 4 4 1 3 7
22 24 26 29 31 15 2 2 2 2 2 2 0 2 1 1 2 3 5 5 2 2 4 2 1 1 3 0 1 4 4 1 2 5 5 4 5 5 3 4 3 7 5 6
22 23 25 28 31 16 1 3 1 2 3 1 6 4 3 3 2 2 2 1 2 3 2 1 4 3 3 2 3 2 3 4 5 6 4 5 4 5 6 5 3 5 7 5
24 27 24 26 28 21 2 3 3 2 2 1 3 3 6 4 5 3 5 1 4 4 2 2 1 2 2 2 0 1 3 3 4 5 4 4 5 7 10 11 7 10 7 10
23 26 27 26 26 22 4 1 3 1 1 1 4 4 7 8 4 7 4 4 6 7 5 7 8 6 4 6 3 2 3 3 2 5 6 6 6 14 13 16 14 13 14 13
22 24 24 23 24 18 7 4 2 2 1 2 3 4 5 6 5 5 4 5 5 3 6 5 3 5 3 5 9 8 6 5 3 5 0 4 5 15 13 3 5 8 12 8
19 21 23 22 19 17 6 3 2 2 4 2 4 2 4 4 4 1 1 4 5 2 4 3 2 1 3 6 7 5 6 5 3 3 3 3 4 2 5 6 2 6 5 5
17 18 19 21 20 16 7 4 2 1 3 2 4 3 3 2 1 2 3 5 3 3 4 3 3 3 3 2 2 6 3 4 2 3 4 6 6 1 5 6 3 2 6 4
16 17 19 20 20 20 9 3 4 1 2 5 4 1 3 3 3 3 3 2 1 4 3 3 6 5 5 4 2 5 3 1 4 3 4 6 3 1 2 3 3 3 5 5
16 16 17 18 19 19 16 4 5 1 2 3 0 3 3 3 1 2 1 3 2 1 3 4 5 6 5 5 7 6 4 2 11 11 6 6 4 3 3 3 2 3 4 4
15 15 16 17 18 19 17 4 9 5 2 4 3 1 2 2 1 3 3 2 0 2 3 4 4 5 6 1 5 7 8 8 4 4 4 8 5 1 3 3 3 5 3 3
15 14 15 16 16 17 17 5 11 10 4 3 6 12 12 6 3 2 3 1 2 3 2 2 0 2 1 3 3 0 3 5 5 8 4 2 4 6 4 3 3 3 4 4
13 14 14 14 15 15 15 12 12 5 2 4 2 4 6 6 10 11 3 1 2 1 2 2 1 4 2 4 4 3 2 2 1 1 2 4 4 4 3 3 5 5 5 5
13 13 12 13 13 14 15 16 9 5 3 3 3 5 2 11 9 10 12 7 1 2 1 2 3 2 4 2 1 2 0 1 3 2 2 3 5 5 4 6 6 5 3 3
15 13 12 12 13 14 17 12 3 3 2 2 4 13 4 6 7 5 10 5 3 2 3 3 3 2 3 2 2 3 0 0 3 0 3 3 6 6 7 6 3 2 2 2
15 15 15 14 13 13 13 2 2 6 7 3 3 4 4 8 9 3 4 9 2 1 1 2 1 1 1 1 1 4 6 7 6 3 7 8 9 4 1 1 1 2 3 4
17 16 15 15 13 11 4 3 3 13 4 1 3 3 2 6 4 1 2 2 1 1 1 0 1 0 1 1 2 3 7 9 8 7 5 6 4 2 2 2 4 5 7 8
17 17 19 19 16 12 5 2 1 0 3 2 2 3 3 7 3 1 3 1 1 2 1 1 2 2 4 4 5 6 6 8 6 3 5 2 1 2 2 3 4 4 4 5
17 19 14 4 1 0 2 5 10 8 2 1 2 1 2 5 3 2 2 2 2 2 2 2 1 3 5 6 6 8 7 5 4 4 2 3 4 5 5 5 5 5 6 7
15 7 4 2 3 11 7 2 1 2 0 1 1 2 1 3 2 1 2 2 2 1 2 3 3 3 3 8 7 6 6 5 5 6 9 7 8 6 6 5 6 7 8 14
5 6 1 6 10 3 3 2 1 1 2 1 1 1 2 3 1 2 2 1 1 2 2 2 3 2 2 4 3 4 5 5 6 4 4 6 5 6 7 8 10 14 15 14
4 5 5 4 5 3 5 2 3 3 2 3 2 3 2 2 2 2 3 2 3 1 5 3 3 1 6 3 5 5 8 10 8 9 7 11 10 11 11 12 13 14 18 20
2 3 4 3 3 7 4 2 3 2 2 3 3 2 1 3 3 3 3 5 0 2 4 2 0 3 4 5 4 6 10 12 11 11 16 16 15 17 15 16 18 20 19 20
3 3 4 3 4 1 1 0 0 2 1 2 1 2 2 2 4 0 4 1 2 3 2 2 2 2 5 5 5 5 8 9 9 12 13 14 15 16 17 17 19 20 19 21
2 3 1 1 2 1 1 2 1 2 1 1 2 2 2 3 4 3 3 5 3 3 2 1 2 4 6 6 6 6 6 8 9 14 13 15 16 15 15 17 20 21 20 19
3 3 3 1 1 3 3 3 2 2 1 1 3 2 4 3 2 5 1 4 0 2 2 2 3 4 5 5 6 9 12 12 13 14 14 15 15 16 18 22 21 19 20 20
3 2 1 1 0 1 1 1 3 6 2 1 2 4 3 1 3 3 1 3 2 2 3 2 3 4 6 9 12 13 14 14 14 15 16 16 18 21 18 13 18 19 20 21
Wind_Direction
2 4 8 8 10 9 166 118 25 139 148 44 350 134 189 161 177 161 302 172 160 189 172 64 63 40 204 96 145 110 41 136 173 232 13 78 168 204 161 125 242 85 149 273
356 359 2 5 6 9 1 103 160 133 225 112 30 275 332 281 148 202 173 195 252 241 174 127 189 260 335 45 108 160 190 150 43 344 354 348 230 200 158 105 95 200 139 261
356 355 355 358 0 357 15 97 15 333 72 324 138 160 200 201 246 235 221 187 143 148 141 23 169 158 215 217 192 133 128 175 194 199 203 134 186 192 194 161 140 182 219 245
358 3 359 356 356 355 319 39 213 187 242 261 152 162 160 169 214 229 184 204 236 170 167 20 240 140 128 159 73 103 144 239 187 259 224 199 216 214 190 199 206 201 243 198
354 356 357 352 355 355 41 30 138 29 204 267 176 175 213 193 185 153 229 227 182 181 197 196 198 159 193 212 14 115 14 240 112 282 271 234 248 249 243 224 238 246 267 272
360 356 356 357 358 5 42 12 11 93 250 148 128 227 194 207 165 211 173 180 135 198 235 214 193 191 157 167 157 185 166 164 143 261 290 254 261 240 226 186 201 218 235 235
4 4 4 2 5 11 356 9 7 62 277 182 211 237 197 220 212 226 133 150 154 188 120 91 61 47 245 185 214 161 151 140 154 258 6 266 271 192 188 185 194 207 113 123
6 7 8 5 2 2 354 354 10 123 272 237 282 229 226 308 321 256 215 212 189 142 72 59 351 326 332 260 41 208 161 135 227 219 213 297 287 202 147 179 211 333 133 107
3 2 2 3 4 1 355 354 352 119 132 245 304 210 176 209 209 317 232 58 127 74 103 119 201 223 223 251 143 23 124 8 195 145 230 244 228 187 347 141 265 120 113 99
356 358 360 1 2 360 358 343 346 298 191 264 337 227 226 157 134 204 268 172 144 62 149 179 184 231 199 220 188 174 128 163 219 224 256 281 233 312 311 142 204 95 76 76
351 355 357 359 360 359 359 318 12 8 255 274 209 274 302 327 161 173 183 76 317 84 183 184 208 198 217 197 172 177 169 173 197 184 222 269 9 31 192 124 54 105 81 71
340 345 348 353 357 358 355 323 336 331 230 298 292 276 263 249 236 181 222 242 160 205 152 208 220 205 193 177 233 199 224 195 184 192 210 98 24 101 104 67 112 112 111 84
327 332 337 342 347 351 351 334 333 329 307 287 305 261 264 250 247 252 243 254 248 179 92 148 205 233 144 186 224 226 219 155 198 329 132 141 122 88 97 93 110 120 119 118
310 314 321 330 336 340 338 333 315 309 290 277 284 348 262 321 298 250 233 250 51 82 146 193 207 214 188 217 209 202 180 40 198 237 149 108 87 73 93 91 87 85 88 112
322 325 327 329 333 336 327 315 300 314 279 297 291 310 321 335 329 282 225 262 216 172 179 207 222 204 172 195 172 199 270 131 196 246 54 52 85 68 62 80 89 75 16 354
311 310 313 317 322 331 339 313 184 102 30 314 299 329 316 338 341 357 178 199 187 82 194 214 183 260 92 196 188 29 48 50 22 99 75 79 102 131 113 124 16 313 287 293
323 313 307 307 306 302 255 258 290 313 273 245 293 307 306 335 305 336 18 39 100 174 87 307 68 191 196 228 82 94 77 58 52 67 77 71 147 155 355 289 303 329 315 308
322 313 309 303 294 280 247 271 135 260 215 225 260 277 324 9 344 5 340 33 47 41 20 38 60 10 36 64 59 69 69 77 64 16 15 81 93 27 9 346 330 322 311 296
318 316 316 340 29 194 322 308 303 279 263 234 197 251 317 346 356 336 13 25 45 345 27 40 342 42 44 21 41 46 34 38 339 351 74 59 43 359 348 345 344 326 308 306
320 333 3 4 344 319 320 108 245 30 143 248 239 330 295 346 352 44 355 357 51 60 50 298 69 86 28 16 31 29 25 17 360 18 9 355 349 343 325 309 296 281 283 296
352 9 317 309 328 344 38 21 71 226 179 13 299 90 327 348 358 356 31 191 35 79 40 355 66 75 24 351 309 338 352 1 11 348 321 319 299 299 309 310 303 300 295 291
323 305 304 326 26 30 74 339 334 13 42 1 5 326 330 358 344 54 3 70 29 71 327 58 74 64 263 294 317 328 11 4 357 351 325 322 315 311 298 293 294 299 301 301
309 40 43 38 321 37 79 345 333 21 345 348 346 353 353 358 38 47 52 55 11 335 40 67 180 265 311 333 351 345 346 354 349 337 333 333 329 327 321 314 311 308 304 304
69 71 4 76 341 2 157 150 238 339 336 353 28 27 51 345 44 63 74 29 53 64 69 85 257 271 328 338 341 349 329 327 325 323 324 316 312 312 312 307 307 306 303 305
76 65 5 20 289 306 291 313 9 342 300 22 37 33 58 358 62 33 60 29 48 35 58 235 268 328 332 325 324 316 312 315 306 311 304 305 312 309 307 314 315 311 310 310
82 57 42 267 359 359 15 7 355 330 21 63 49 78 52 10 101 49 81 96 158 264 245 273 326 302 295 294 308 315 316 315 315 315 316 316 317 316 313 315 318 318 317 313
49 347 352 39 87 342 309 336 325 323 59 65 89 54 202 32 46 35 217 144 223 247 296 275 273 284 307 316 321 324 322 317 316 318 318 315 316 321 314 308 316 315 312 310